Volver al catálogo

WILDFIRE 10

ActivoCienciaPO
NORAD 57766·PAYLOAD·🇺🇸 United States

Lanzado Sep 2, 2023 desde Vandenberg Space Force Base

Loading…

Próximos Pases (próximas 24 horas)

TLE

ActualizadoSource: Space-Track

Época: Sep 13, 2026, 13:47 UTC

1 57766U 23133K   26256.57460762  .00000062  00000-0  44568-4 0  9990
2 57766  80.9996 282.6250 0007515 122.0371 238.1516 13.85637649153280

Sigue WILDFIRE 10 en tiempo real con AllMySat

Download on the App Store